Regional Weather Roundup
Issued by NWS Cleveland, OH

Home | Current Version | Previous Version | Graphics & Text | Print | Product List | Glossary On
Versions: 1 2 3 4 5 6 7 8 9 10 11 12 13 14 15 16 17 18 19 20 21 22 23 24 25 26 27 28 29 30 31 32 33 34 35 36 37 38 39 40 41 42 43 44 45 46 47 48 49 50
000
ASUS41 KCLE 281910
RWRCLE
OHIO REGIONAL WEATHER ROUNDUP
NATIONAL WEATHER SERVICE WILMINGTON, OH
300 PM EDT TUE MAR 28 2017

NOTE: "FAIR" INDICATES FEW OR NO CLOUDS BELOW 12,000 FEET WITH NO
SIGNIFICANT WEATHER AND/OR OBSTRUCTIONS TO VISIBILITY.

OHZ001>008-015>018-024>027-034-035-043-044-282000-
   NORTHWEST OHIO

CITY           SKY/WX    TMP DP  RH WIND       PRES   REMARKS
DEFIANCE       CLOUDY    48  41  76 N8        30.07S
FINDLAY        CLOUDY    50  41  71 NE10      30.05S
TOLEDO EXPRESS CLOUDY    49  41  74 N9        30.06R
TOLEDO EXEC    CLOUDY    49  41  74 NE7       30.07R
LIMA           CLOUDY    49  46  90 N9        30.05R
$$

OHZ009>014-019>023-028>033-038-089-282000-
   NORTHEAST OHIO

CITY           SKY/WX    TMP DP  RH WIND       PRES   REMARKS
CLE-HOPKINS    CLOUDY    45  38  76 N12       30.06R
CLE-LAKEFRONT  CLOUDY    42  38  85 W5        30.04R
CUY CO. ARPT   CLOUDY    45  41  87 N8        30.04R
LORAIN-ELYRIA  CLOUDY    43  37  79 N13       30.05R
ASHTABULA      CLOUDY    43  41  93 NW8       30.01R
AKRON-CANTON   PTSUNNY   50  44  80 N9        29.98S
WOOSTER        CLOUDY    44  41  89 N13       30.03R
MANSFIELD      CLOUDY    43  42  97 N12       30.03R
YOUNGSTOWN     CLOUDY    50  45  83 NW12      29.97S
$$

OHZ042-051>053-060>062-070>072-077>081-282000-
  SOUTHWEST OHIO

CITY           SKY/WX    TMP DP  RH WIND       PRES   REMARKS
CINC-COVINGTON CLOUDY    60  53  77 NW13      30.01R
CINC-LUNKEN    CLOUDY    62  54  74 N10       30.01R
HAMILTON       CLOUDY    58  52  80 N9        30.03R
DAYTON         CLOUDY    54  48  80 N10       30.04R
WRIGHT-PAT AFB CLOUDY    54  52  93 N8        30.02R
DAYTON GENERAL CLOUDY    56  50  80 N10       30.01R
WILMINGTON     CLOUDY    58  52  80 N12       30.00R
$$

OHZ036-037-039>041-045>050-054>059-063>069-073>076-082>088-282000-
  CENTRAL AND SOUTHEAST OHIO

CITY           SKY/WX    TMP DP  RH WIND       PRES   REMARKS
COLUMBUS       PTSUNNY   59  50  72 NW13      29.99R
OSU AIRPORT    CLOUDY    54  48  80 NW13      30.00S
BOLTON FIELD   PTSUNNY   54  48  82 N14       30.01R
RICKENBACK AFB PTSUNNY   58  51  76 N9        29.99S
NEWARK         CLOUDY    58  49  72 N8        29.98R
MARION         CLOUDY    49  44  83 N13       30.03S
LANCASTER      CLOUDY    60  52  74 N10       29.99R
ZANESVILLE     CLOUDY    57  49  74 NW12      29.97R
NEW PHILLY     CLOUDY    56  50  80 N10       29.97S
$$




USA.gov is the U.S. government's official web portal to all federal, state and local government web resources and services.